Regional Weather Roundup
Issued by NWS Green Bay, WI

Home | Current Version | Previous Version | Graphics & Text | Print | Product List | Glossary Off
Versions: 1 2 3 4 5 6 7 8 9 10 11 12 13 14 15 16 17 18 19 20 21 22 23 24 25 26 27 28 29 30 31 32 33 34 35 36 37 38 39 40 41 42 43 44 45 46 47 48 49 50

000
ASUS43 KGRB 191959
RWRGRB

NORTH-CENTRAL AND NORTHEAST WISCONSIN REGIONAL WEATHER ROUNDUP
NATIONAL WEATHER SERVICE GREEN BAY WI
300 PM CDT SAT APR 19 2014

WIZ005-009-010>012-018-019-192100-
NORTH CENTRAL WISCONSIN

CITY           SKY/WX    TMP DP  RH WIND       PRES   REMARKS
IRONWOOD       CLOUDY    52  28  40 S20G30    29.99F
MANITOWISH WTR NOT AVBL
ARBOR VITAE    NOT AVBL
EAGLE RIVER    NOT AVBL
LAND O LAKES   NOT AVBL
RHINELANDER    SUNNY     50  27  40 S12G22    30.16F
PHILLIPS       NOT AVBL
ANTIGO         NOT AVBL
TOMAHAWK       NOT AVBL
MERRILL        NOT AVBL
$$

WIZ013-073-192100-
NORTHEAST WISCONSIN

CITY           SKY/WX    TMP DP  RH WIND       PRES   REMARKS
IRON MOUNTAIN  PTSUNNY   49  21  33 S15G24    30.22F
MARINETTE      MOSUNNY   43  28  56 SE12      30.30F
$$

WIZ017-030-035>037-045-192100-
CENTRAL WISCONSIN

CITY           SKY/WX    TMP DP  RH WIND       PRES   REMARKS
MEDFORD        NOT AVBL
WAUSAU         SUNNY     57  31  37 S14G22    30.18F
MOSINEE        SUNNY     55  34  44 SE15G22   30.19F
MARSHFIELD     SUNNY     61  36  39 S18G24    30.16F
WISC RAPIDS    SUNNY     63  31  30 SE10G23   30.19F
STEVENS POINT  NOT AVBL
WAUPACA        NOT AVBL
SHAWANO        NOT AVBL
CLINTONVILLE   NOT AVBL
$$

WIZ038-039-048-051-192100-
FOX VALLEY

CITY           SKY/WX    TMP DP  RH WIND       PRES   REMARKS
NWS GREEN BAY  MOSUNNY   52  36  54 SE14      30.28F
APPLETON       PTSUNNY   52  30  43 SE16      30.26F
OSHKOSH        MOSUNNY   56  34  43 S15G24    30.24F
FOND DU LAC    MOSUNNY   57  35  43 SE18G26   30.26F
$$

WIZ022-050-052-192100-
EAST CENTRAL WISCONSIN

CITY           SKY/WX    TMP DP  RH WIND       PRES   REMARKS
STURGEON BAY   MOSUNNY   46  25  42 S15G21    30.32F
MANITOWOC      NOT AVBL
SHEBOYGAN      MOSUNNY   48  35  60 S15       30.31F
$$

LMZ563-521-522-541>543-192100-
LAKESHORE

STATION/POSITION TIME  TEMP    WIND        PRES    VSBY  WAVE
                       AIR SEA DIR/SP/G                  HT/PER
                 (UTC) (F)     (DEG/KT/KT) (MB)    (MI)  (FT/S)
SHEBOYGAN LKSHOR 1900   38     180/ 13/ 14 1028.2F
KEWAUNEE LKSHORE 1900   37     160/  8/  9 1027.7F
NORTHPORT PIER   1900   35     100/  6/  7 1027.8F
SISTER BAY LKSHO 1900   51     140/ 11/ 15   N/A
MENOMINEE LKSHOR 1900   37      70/  9/  9 1027.2F
$$



USA.gov is the U.S. government's official web portal to all federal, state and local government web resources and services.